Kuchera_Ratio
0.0 0.0 0.0 0.0 0.0 0.0 0.0 0.0 0.0 0.0 0.0 0.0 0.0 0.0 0.0 0.0 0.0 0.0 0.0 0.0 0.0 0.0 0.0 0.0 0.0 0.0 0.0 0.0 0.0 0.0 0.0 0.0 0.0 0.0 0.0 0.0 0.0 0.0 0.0 0.0 0.0 0.0 0.0 0.0
0.0 0.0 0.0 0.0 0.0 0.0 0.0 0.0 0.0 0.0 0.0 0.0 0.0 0.0 0.0 0.0 0.0 0.0 0.0 0.0 0.0 0.0 0.0 0.0 0.0 0.0 0.0 0.0 0.0 0.0 0.0 0.0 0.0 0.0 0.0 0.0 0.0 0.0 0.0 0.0 0.0 0.0 0.0 0.0
0.0 0.0 0.0 0.0 0.0 0.0 0.0 0.0 0.0 0.0 0.0 0.0 0.0 0.0 0.0 0.0 0.0 0.0 0.0 0.0 0.0 0.0 0.0 0.0 0.0 0.0 0.0 0.0 0.0 0.0 0.0 0.0 0.0 0.0 0.0 0.0 0.0 0.0 0.0 0.0 0.0 0.0 0.0 0.0
0.0 0.0 0.0 0.0 0.0 0.0 0.0 0.0 0.0 0.0 0.0 0.4 0.0 2.9 0.0 0.0 0.0 0.0 0.0 0.0 0.0 0.0 0.0 0.0 0.0 0.0 0.0 0.0 0.0 0.0 0.0 0.0 0.0 0.0 0.0 0.0 0.0 0.0 0.0 0.0 0.0 0.0 0.0 0.0
0.0 0.0 0.0 0.0 0.0 0.0 0.0 0.0 0.0 0.0 0.0 0.0 0.0 0.6 0.0 0.0 0.0 0.0 0.0 0.0 0.0 0.0 0.0 0.0 0.0 0.0 0.0 0.0 0.0 0.0 0.0 0.0 0.0 0.0 0.0 0.0 0.0 0.0 0.0 0.0 0.0 0.0 0.0 0.0
0.0 0.0 0.0 0.0 0.0 0.0 0.0 0.0 0.0 0.0 0.0 6.4 0.0 1.4 0.0 0.0 0.0 0.0 0.0 0.0 0.0 0.0 0.0 0.0 0.0 0.0 0.0 0.0 0.0 0.0 0.0 0.0 0.0 0.0 0.0 0.0 0.0 0.0 0.0 0.0 0.0 0.0 0.0 0.0
0.0 0.0 0.0 0.0 0.0 0.0 0.0 0.0 9.5 11.4 12.1 11.4 0.0 0.0 0.0 0.0 0.0 0.0 0.0 0.0 0.0 0.0 0.0 0.0 0.0 0.0 0.0 0.0 0.0 0.0 0.0 0.0 0.0 0.0 0.0 0.0 0.0 0.0 0.0 0.0 0.0 0.0 0.0 0.0
7.0 10.4 0.0 0.0 0.0 0.0 0.0 1.0 12.2 15.7 13.9 10.4 0.0 5.2 0.0 0.0 0.0 0.0 0.0 0.0 0.0 0.0 0.0 0.0 0.0 0.0 0.0 0.0 0.0 0.0 0.0 0.0 0.0 0.0 0.0 0.0 0.0 0.0 0.0 0.0 0.0 0.0 0.0 0.0
7.6 6.2 0.0 0.0 0.0 0.0 0.0 4.4 0.0 9.6 7.0 12.3 6.2 0.0 0.0 0.0 0.0 0.0 0.0 0.0 0.0 0.0 0.0 0.0 0.0 0.0 0.0 0.0 0.0 0.0 0.0 0.0 0.0 0.0 0.0 0.0 0.0 0.0 0.0 0.0 0.0 0.0 0.0 0.0
0.1 12.0 0.0 0.0 0.0 0.0 0.0 0.0 11.2 7.8 15.3 15.8 9.4 7.0 4.6 0.0 0.0 0.0 0.0 0.0 0.0 0.0 0.0 0.0 0.0 0.0 0.0 0.0 0.0 0.0 0.0 0.0 0.0 0.0 0.0 0.0 0.0 0.0 0.0 0.0 0.0 0.0 0.0 0.0
0.0 4.2 5.6 0.0 1.6 4.0 1.0 4.6 4.2 6.0 8.2 13.4 14.7 9.2 0.0 0.6 0.0 0.0 0.0 0.0 0.0 0.0 0.0 0.0 0.0 0.0 0.0 0.0 0.0 0.0 0.0 0.0 0.0 0.0 0.0 0.0 0.0 0.0 0.0 0.0 0.0 0.0 0.0 0.0
0.0 6.0 13.1 8.8 0.0 0.0 0.0 5.0 6.6 13.2 14.1 12.6 13.0 12.4 0.0 0.0 0.0 0.0 0.0 0.0 0.0 0.0 0.0 0.0 0.0 0.0 0.0 0.0 0.0 0.0 0.0 0.0 0.0 0.0 0.0 0.0 0.0 0.0 0.0 0.0 0.0 0.0 0.0 0.0
0.0 10.8 16.2 12.6 4.4 0.0 5.2 0.6 0.0 6.0 8.8 14.5 15.1 11.6 0.0 0.0 0.0 0.0 0.0 0.0 0.0 0.0 0.0 0.0 0.0 0.0 0.0 0.0 0.0 0.0 0.0 0.0 0.0 0.0 0.0 0.0 0.0 0.0 0.0 0.0 0.0 0.0 0.0 0.0
0.0 7.4 12.6 16.2 12.0 3.6 11.8 5.8 0.0 2.6 12.9 12.8 10.6 6.2 0.0 0.0 1.0 0.0 0.0 0.0 0.0 0.0 0.0 0.0 0.0 0.0 0.0 0.0 0.0 0.0 0.0 0.0 0.0 0.0 0.0 0.0 0.0 0.0 0.0 0.0 0.0 0.0 0.0 0.0
2.2 13.6 10.0 7.4 4.8 3.0 3.2 2.4 0.0 3.0 3.4 12.4 4.4 3.4 0.0 0.0 0.0 0.0 0.0 0.0 0.0 0.0 0.0 0.0 0.0 0.0 0.0 0.0 0.0 0.0 0.0 0.0 0.0 0.0 0.0 0.0 0.0 0.0 0.0 0.0 0.0 0.0 0.0 0.0
2.6 13.1 10.6 12.3 4.4 3.6 5.0 2.0 0.4 0.0 0.0 0.6 0.0 0.0 0.0 0.0 0.0 0.0 0.0 0.0 0.0 0.0 0.0 0.0 0.0 0.0 0.0 0.0 0.0 0.0 0.0 0.0 0.0 0.0 0.0 0.0 0.0 0.0 0.0 0.0 0.0 0.0 0.0 0.0
9.2 9.8 12.4 14.4 5.8 7.2 12.8 7.0 2.4 0.8 0.0 0.0 6.8 4.0 0.0 0.0 0.0 0.0 0.0 0.0 0.0 0.0 0.0 0.0 0.0 0.0 0.0 0.0 0.0 0.0 0.0 0.0 0.0 0.0 0.0 0.0 0.0 0.0 0.0 0.0 0.0 0.0 0.0 0.0
7.1 10.2 12.2 14.2 12.4 17.8 6.0 1.4 2.6 4.6 5.6 3.6 1.2 1.0 0.0 0.0 0.0 0.0 0.0 0.0 0.0 0.0 0.0 0.0 0.0 0.0 0.0 0.0 0.0 0.0 0.0 0.0 0.0 0.0 0.0 0.0 0.0 0.0 0.0 0.0 0.0 0.0 0.0 0.0
1.0 8.2 14.0 17.5 15.7 9.8 11.0 7.2 9.4 8.6 9.6 4.8 3.0 1.4 0.4 0.0 0.0 0.6 0.0 0.0 0.0 0.0 0.0 0.0 0.0 0.0 0.0 0.0 0.0 0.0 0.0 0.0 0.0 0.0 0.0 0.0 0.0 0.0 0.0 0.0 0.0 0.0 0.0 0.0
1.8 5.2 12.4 13.4 16.4 17.9 13.3 5.4 0.0 3.2 13.6 6.6 3.2 3.6 5.0 2.0 8.6 6.0 0.0 0.0 0.0 0.0 0.0 0.0 0.0 0.0 0.0 0.3 1.4 2.8 3.3 2.5 0.4 0.0 0.0 0.0 0.0 0.0 0.0 0.0 0.0 0.0 0.0 0.0
14.4 14.4 14.0 13.9 15.6 13.9 9.2 3.0 0.0 14.0 15.5 5.6 4.6 5.2 5.8 7.2 5.2 2.6 0.0 0.0 0.0 0.0 0.0 0.0 0.0 0.0 0.0 1.8 3.4 6.4 6.9 5.0 3.5 3.1 3.2 1.4 1.2 0.2 0.0 0.0 0.0 0.0 0.0 0.0
15.4 17.5 15.8 14.5 18.6 19.6 6.2 4.4 13.9 10.8 5.8 5.2 5.2 5.4 6.2 4.4 0.6 0.0 0.0 0.0 0.0 2.1 1.8 1.2 3.0 3.6 2.6 4.0 5.4 8.3 6.8 5.7 6.1 5.8 4.8 2.1 2.8 2.1 0.2 0.0 0.0 0.0 0.0 0.0
14.9 12.1 13.8 12.6 13.2 7.2 5.0 7.0 5.0 5.0 6.6 6.0 5.0 4.8 4.6 3.4 2.2 0.8 2.2 2.4 2.8 4.8 5.6 4.8 7.0 7.2 6.2 6.6 7.8 8.2 7.9 7.6 7.5 8.3 4.2 5.5 4.8 4.8 2.9 1.4 0.7 0.6 0.0 0.0
7.6 4.6 12.4 11.8 8.6 7.4 6.4 4.6 4.2 3.4 4.2 3.4 0.0 0.8 1.2 3.8 3.6 4.2 5.6 6.8 7.2 7.8 8.4 7.2 9.4 10.6 11.2 10.0 9.8 10.0 9.5 9.1 9.7 8.8 8.6 5.6 6.9 6.3 4.9 3.7 4.7 4.4 3.4 0.3
7.6 4.9 9.4 11.7 7.6 4.8 5.4 4.8 5.0 3.2 0.0 0.6 0.0 0.4 3.2 4.2 6.2 6.2 8.2 10.0 10.4 10.0 9.2 9.2 11.2 12.3 12.4 12.1 12.2 12.3 12.2 12.3 12.2 11.8 9.5 11.4 10.5 9.1 7.7 7.1 8.8 8.1 6.7 3.5
4.2 9.2 13.0 13.3 7.6 8.4 7.4 3.9 0.2 1.8 2.0 1.0 1.6 3.2 3.0 5.4 7.4 7.6 10.2 10.8 12.1 12.7 12.3 12.5 13.0 13.3 13.5 12.8 12.4 12.4 12.5 12.8 13.4 13.0 12.3 11.6 12.4 12.4 11.2 11.2 11.6 9.0 8.7 6.8